This demonstration page uses our WeatherBlox Daily Observations layout. Learn more.

Left ArrowRight Arrow

36.17497, -115.13722

Hourly Observations for March 31, 2015

Temp ( °F °C ) Dew Point ( °F °C ) Humidity (%) Winds ( mph kmh ) Pressure ( in mb ) Visibility ( mi km ) Precip ( " mm )
12:53 am 00:53 Clear 69 20.6 21 -6.1 16 16 N 6 9 29.93 1014 10 16 N/A
1:53 am 01:53 Clear 65 18.3 21 -6.1 19 19 NW 7 11 29.92 1013 10 16 N/A
2:53 am 02:53 Clear 63 17.2 26 -3.3 25 25 NW 6 9 29.91 1013 10 16 N/A
3:53 am 03:53 Clear 62 16.7 26 -3.3 25 25 NW 6 9 29.91 1013 10 16 N/A
4:53 am 04:53 Clear 61 16.1 26 -3.3 26 26 N N/A 29.91 1013 10 16 N/A
5:53 am 05:53 Clear 61 16.1 26 -3.3 26 26 NW 3 6 29.91 1013 10 16 N/A
6:53 am 06:53 Sunny 60 15.6 26 -3.3 27 27 NNW 6 9 29.92 1013 10 16 N/A
7:53 am 07:53 Sunny 65 18.3 28 -2.2 25 25 N N/A 29.93 1014 10 16 N/A
8:53 am 08:53 Sunny 71 21.7 23 -5 16 16 N N/A 29.93 1013 10 16 N/A
9:53 am 09:53 Sunny 75 23.9 21 -6.1 13 13 VRB 5 7 29.93 1013 10 16 N/A
10:53 am 10:53 Sunny 79 26.1 19 -7.2 10 10 ESE 7 11 29.91 1013 10 16 N/A
11:53 am 11:53 Sunny 83 28.3 19 -7.2 9 9 SE 8 13 29.88 1012 10 16 N/A
12:35 pm 12:35 Sunny 87 30.6 15 -9.4 7 7 SSW 20 31 29.74 1007 10 16 N/A
12:53 pm 12:53 Sunny 88 31.1 14 -10 6 6 SW 18 30 29.84 1010 10 16 N/A
1:53 pm 13:53 Sunny 88 31.1 7 -13.9 4 4 SSW 23 37 29.82 1010 10 16 N/A
2:53 pm 14:53 Sunny 86 30 2 -16.7 4 4 SSW 20 31 29.79 1009 10 16 N/A
3:53 pm 15:53 Sunny 85 29.4 4 -15.6 4 4 SW 16 26 29.77 1008 10 16 N/A
4:53 pm 16:53 Sunny 85 29.4 1 -17.2 4 4 W 16 26 29.76 1008 10 16 N/A
5:53 pm 17:53 Sunny 85 29.4 7 -13.9 5 5 SW 13 20 29.75 1007 10 16 N/A
6:53 pm 18:53 Sunny 83 28.3 10 -12.2 6 6 WSW 21 33 29.73 1007 10 16 N/A
7:53 pm 19:53 Clear 80 26.7 6 -14.4 6 6 SW 10 17 29.74 1007 10 16 N/A
8:53 pm 20:53 Clear 78 25.6 13 -10.6 8 8 SSW 15 24 29.74 1007 10 16 N/A
9:53 pm 21:53 Clear 76 24.4 17 -8.3 11 11 SSW 10 17 29.75 1008 10 16 N/A
10:53 pm 22:53 Clear 74 23.3 17 -8.3 11 11 SW 16 26 29.73 1007 10 16 N/A
11:53 pm 23:53 Clear 73 22.8 17 -8.3 12 12 SW 17 28 29.73 1007 10 16 N/A

Powered by AerisWeather